[[{"header":{"parameterUnit":"m.s-1","parameterCategory":2,"la1":30.2992,"la2":30.254,"lo1":-89.0895,"lo2":-89.0443,"dy":0.0025,"dx":0.0025,"nx":19,"ny":19,"refTime":"2026-04-20T21:00:00:Z","depth":"0","parameterNumber":2,"parameterNumberName":"U-component_of_CURRENTS"},"data":[0,0,0,0.42,0.4203,0.4287,0.4287,0.4401,0.4403,0,0,0,0,0,0,0,0,0,0,0,0.417,0.4171,0.42,0.4203,0.4287,0.4287,0.4401,0.4403,0,0,0,0,0,0,0,0,0,0,0,0.4169,0.417,0.4172,0.4203,0.4287,0.4287,0.4401,0.4331,0,0,0,0,0,0,0,0,0,0,0.4247,0.4226,0.417,0.4172,0.4204,0.4287,0.4287,0.4328,0.4336,0.4371,0,0.4399,0,0.4414,0.4412,0.4413,0,0,0,0.4185,0.4219,0.4245,0.4172,0.4205,0.4287,0.4244,0.4332,0.4341,0.4381,0.4401,0.4405,0.4416,0.4413,0.4414,0.4664,0.4666,0,0,0.418,0.4179,0.4239,0.4252,0.4248,0.4241,0.4247,0.4337,0.4354,0.4401,0.4408,0.4418,0.4414,0.4415,0.4663,0.4665,0,0,0,0.4179,0.4176,0.4199,0.4247,0.4268,0.4244,0.425,0.435,0.436,0.4409,0.4419,0.4415,0.4417,0.4661,0.4664,0.4754,0,0,0,0.4175,0.4177,0.4198,0.4197,0.4267,0.4311,0.4261,0.4353,0.4364,0.4419,0.4415,0.4418,0.4659,0.4662,0.4748,0.4756,0,0,0,0.4162,0.4175,0.4192,0.4197,0.4242,0.4309,0.4323,0.4355,0.4371,0.4413,0.4418,0.4658,0.4662,0.4742,0.4748,0.4809,0,0,0,0.4146,0.4201,0.4192,0.4273,0.4241,0.4364,0.4322,0.4419,0.4467,0.4416,0.4659,0.4663,0.474,0.4743,0.4804,0.4685,0.4699,0,0,0.4205,0.4208,0.426,0.4255,0.4374,0.4349,0.4499,0.4539,0.4538,0.4622,0.4628,0.475,0.4747,0.4808,0.4918,0.4924,0,0,0,0.4273,0.4301,0.4346,0.4408,0.4485,0.4555,0.4599,0.4649,0.474,0.4588,0.4807,0.4803,0.4837,0.4757,0.4765,0.4645,0.4682,0.4682,0.4681,0.4295,0.4349,0.4434,0.4508,0.4596,0.4719,0.4798,0.487,0.486,0.4938,0.492,0.5083,0.5005,0.5007,0.4889,0.4987,0.4987,0.4987,0.4988,0.4348,0.4383,0.4469,0.4558,0.4661,0.4783,0.4977,0.5016,0.5134,0.5088,0.5117,0.4911,0.5019,0.489,0.4994,0.4993,0.4992,0.4992,0.4991,0.4324,0.4346,0.4399,0.4513,0.4655,0.4821,0.4975,0.5113,0.5203,0.5245,0.5139,0.5135,0.4978,0.526,0.526,0.526,0.5261,0.5261,0.5261,0.4253,0.4315,0.4349,0.4481,0.4548,0.4728,0.4967,0.5068,0.5192,0.522,0.5219,0.503,0.5166,0.5105,0.5267,0.5266,0.5265,0.5265,0.5264,0.4222,0.4233,0.4276,0.4323,0.4468,0.4514,0.4785,0.4964,0.5102,0.5157,0.5044,0.5211,0.5159,0.5151,0.5092,0.5241,0.5241,0.5241,0.5241,0.4168,0.4192,0.4185,0.4214,0.4298,0.4412,0.4387,0.4575,0.4828,0.4859,0.4972,0.4872,0.4878,0.4804,0.4804,0.4736,0.4791,0.4791,0.479,0.4138,0.4144,0.4094,0.4115,0.4191,0.4212,0.4056,0.4025,0.443,0.4765,0.484,0.4859,0.4706,0.4725,0.4599,0.4609,0.4492,0,0]},{"header":{"parameterUnit":"m.s-1","parameterCategory":2,"la1":30.2992,"la2":30.254,"lo1":-89.0895,"lo2":-89.0443,"dy":0.0025,"dx":0.0025,"nx":19,"ny":19,"refTime":"2026-04-20T21:00:00:Z","depth":"0","parameterNumber":3,"parameterNumberName":"V-component_of_CURRENTS"},"data":[0,0,0,0.0304,0.0304,0.0272,0.0272,0.0192,0.0191,0,0,0,0,0,0,0,0,0,0,0,0.0314,0.0314,0.0304,0.0304,0.0272,0.0272,0.0192,0.0191,0,0,0,0,0,0,0,0,0,0,0,0.0314,0.0314,0.0314,0.0304,0.0272,0.0272,0.0192,0.0224,0,0,0,0,0,0,0,0,0,0,0.0258,0.0274,0.0314,0.0314,0.0304,0.0273,0.0272,0.0225,0.0222,0.0197,0,0.0199,0,0.0196,0.0186,0.0185,0,0,0,0.0295,0.0277,0.0273,0.0314,0.0304,0.0273,0.0284,0.0223,0.0219,0.0192,0.0198,0.0195,0.0195,0.0185,0.0185,0.0179,0.0179,0,0,0.0296,0.03,0.0277,0.0271,0.0303,0.0285,0.0283,0.0221,0.0216,0.0198,0.0194,0.0194,0.0184,0.0184,0.0178,0.0179,0,0,0,0.0308,0.0302,0.03,0.0274,0.0273,0.0284,0.0282,0.0218,0.022,0.0193,0.0193,0.0184,0.0183,0.0178,0.0178,0.0349,0,0,0,0.0308,0.0309,0.0301,0.0302,0.0275,0.025,0.0281,0.0224,0.0217,0.0193,0.0184,0.0182,0.0177,0.0178,0.0343,0.0463,0,0,0,0.0315,0.0309,0.031,0.0302,0.0294,0.0252,0.0249,0.0222,0.0217,0.0185,0.0182,0.0176,0.0178,0.0338,0.0452,0.0589,0,0,0,0.0314,0.0352,0.031,0.0356,0.0294,0.0328,0.0249,0.025,0.0232,0.0184,0.0177,0.0178,0.0337,0.0445,0.0581,0.0718,0.0765,0,0,0.0373,0.0359,0.0392,0.0354,0.0428,0.0331,0.0401,0.0332,0.0241,0.0191,0.0191,0.0345,0.0451,0.0587,0.0792,0.0837,0,0,0,0.0419,0.0449,0.0462,0.0489,0.0481,0.0506,0.0418,0.0393,0.0351,0.0236,0.0323,0.0385,0.0466,0.053,0.0566,0.0355,0.0184,0.0184,0.0184,0.0509,0.0525,0.0604,0.0621,0.0631,0.062,0.064,0.0581,0.0451,0.0454,0.0507,0.0708,0.0774,0.0803,0.0582,0.0461,0.0461,0.0462,0.0462,0.0646,0.0712,0.0725,0.0804,0.0816,0.0859,0.0852,0.0797,0.081,0.0649,0.0718,0.0685,0.0854,0.0603,0.0473,0.0471,0.047,0.0469,0.0468,0.0728,0.0771,0.0805,0.0926,0.1039,0.1051,0.1228,0.1145,0.1014,0.1061,0.1106,0.1103,0.0902,0.1079,0.108,0.1082,0.1082,0.1083,0.1084,0.0804,0.085,0.0969,0.1081,0.1194,0.1371,0.1444,0.1495,0.1469,0.1342,0.1342,0.0954,0.0897,0.0895,0.1102,0.1099,0.1096,0.1095,0.1093,0.0948,0.095,0.1142,0.1261,0.1547,0.1837,0.1867,0.2008,0.1967,0.201,0.1408,0.1487,0.146,0.1429,0.1439,0.1775,0.1775,0.1775,0.1775,0.104,0.1057,0.1326,0.1558,0.185,0.2068,0.2437,0.2469,0.2083,0.1793,0.1565,0.1393,0.1375,0.1327,0.1298,0.1298,0.159,0.1589,0.1588,0.1164,0.1223,0.1443,0.1652,0.1992,0.2341,0.2721,0.2809,0.2092,0.1548,0.1248,0.1256,0.0956,0.0945,0.0819,0.0796,0.0776,0,0]}],[{"header":{"parameterUnit":"m.s-1","parameterCategory":2,"la1":30.2992,"la2":30.254,"lo1":-89.0895,"lo2":-89.0443,"dy":0.0025,"dx":0.0025,"nx":19,"ny":19,"refTime":"2026-04-20T21:00:00:Z","depth":"2","parameterNumber":2,"parameterNumberName":"U-component_of_CURRENTS"},"data":[0,0,0,0.3381,0.3384,0.3506,0.3506,0.3644,0.3646,0,0,0,0,0,0,0,0,0,0,0,0.3334,0.3335,0.3381,0.3384,0.3506,0.3506,0.3644,0.3646,0,0,0,0,0,0,0,0,0,0,0,0.3334,0.3335,0.3337,0.3385,0.3506,0.3507,0.3644,0.3553,0,0,0,0,0,0,0,0,0,0,0.3436,0.3401,0.3335,0.3337,0.3385,0.3506,0.3507,0.3549,0.3559,0.3587,0,0.3617,0,0.3643,0.3655,0.3656,0,0,0,0.3372,0.3393,0.3429,0.3337,0.3387,0.3506,0.3448,0.3554,0.3566,0.36,0.3619,0.3624,0.3645,0.3656,0.3657,0.3843,0.3844,0,0,0.3365,0.3353,0.3421,0.3436,0.3433,0.3444,0.3452,0.3561,0.3577,0.3619,0.3628,0.3647,0.3657,0.3658,0.3842,0.3844,0,0,0,0.3354,0.3348,0.3381,0.343,0.3459,0.3448,0.3457,0.3572,0.3585,0.3629,0.3649,0.3658,0.366,0.3841,0.3843,0.3931,0,0,0,0.3349,0.3343,0.3378,0.3371,0.3457,0.3521,0.3465,0.3576,0.359,0.3648,0.3658,0.3661,0.384,0.3842,0.3927,0.3945,0,0,0,0.3326,0.334,0.3359,0.3371,0.343,0.352,0.3538,0.358,0.3603,0.3656,0.3662,0.384,0.3842,0.3923,0.3938,0.4009,0,0,0,0.3301,0.3332,0.3359,0.3406,0.3429,0.3531,0.3537,0.3623,0.3674,0.3659,0.3841,0.3843,0.3921,0.3935,0.4005,0.3914,0.3926,0,0,0.332,0.3334,0.3362,0.3389,0.3483,0.3513,0.3628,0.3697,0.3716,0.3798,0.3803,0.3928,0.3938,0.4009,0.4042,0.405,0,0,0,0.3354,0.3385,0.3419,0.3482,0.3551,0.3648,0.3711,0.3762,0.3867,0.376,0.3949,0.3952,0.3994,0.393,0.3938,0.3853,0.3853,0.3853,0.3853,0.3358,0.3403,0.3455,0.3532,0.3618,0.3755,0.3844,0.3927,0.3932,0.4002,0.404,0.4173,0.4108,0.4112,0.4069,0.4069,0.407,0.407,0.407,0.3366,0.3378,0.3476,0.3553,0.3675,0.3796,0.398,0.4036,0.4178,0.4141,0.4179,0.4046,0.4125,0.4078,0.4076,0.4075,0.4075,0.4074,0.4074,0.3336,0.3339,0.3412,0.3514,0.3667,0.383,0.3995,0.4151,0.4247,0.4315,0.4247,0.4244,0.4211,0.4346,0.4347,0.4347,0.4348,0.4348,0.4348,0.324,0.3307,0.335,0.3478,0.3555,0.374,0.401,0.4124,0.4279,0.4328,0.4327,0.4265,0.4256,0.4227,0.4355,0.4354,0.4353,0.4352,0.4352,0.3168,0.3213,0.3253,0.3316,0.3457,0.35,0.3811,0.4036,0.4207,0.4259,0.4338,0.4336,0.4295,0.4286,0.4258,0.4386,0.4386,0.4386,0.4386,0.3098,0.3125,0.3148,0.3185,0.3254,0.3382,0.3416,0.3621,0.3942,0.4037,0.4051,0.3942,0.3951,0.3882,0.3883,0.3843,0.3863,0.3862,0.386,0.3034,0.3058,0.303,0.3074,0.3128,0.3174,0.3094,0.3095,0.3413,0.3831,0.3866,0.4369,0.4246,0.4244,0.4165,0.4156,0.4102,0,0]},{"header":{"parameterUnit":"m.s-1","parameterCategory":2,"la1":30.2992,"la2":30.254,"lo1":-89.0895,"lo2":-89.0443,"dy":0.0025,"dx":0.0025,"nx":19,"ny":19,"refTime":"2026-04-20T21:00:00:Z","depth":"2","parameterNumber":3,"parameterNumberName":"V-component_of_CURRENTS"},"data":[0,0,0,0.0282,0.0281,0.0252,0.0251,0.0195,0.0194,0,0,0,0,0,0,0,0,0,0,0,0.0292,0.0292,0.0282,0.0281,0.0252,0.0251,0.0195,0.0194,0,0,0,0,0,0,0,0,0,0,0,0.0292,0.0292,0.0292,0.0281,0.0252,0.0251,0.0195,0.022,0,0,0,0,0,0,0,0,0,0,0.025,0.0261,0.0292,0.0292,0.0281,0.0252,0.0251,0.0221,0.0218,0.0205,0,0.0205,0,0.0201,0.0191,0.019,0,0,0,0.0274,0.0264,0.0261,0.0292,0.0281,0.0252,0.0263,0.022,0.0216,0.0201,0.0205,0.0203,0.02,0.019,0.019,0.0216,0.0217,0,0,0.0275,0.0279,0.0264,0.0259,0.0279,0.0264,0.0262,0.0218,0.0213,0.0204,0.0201,0.0199,0.019,0.0189,0.0215,0.0216,0,0,0,0.0285,0.028,0.0278,0.0262,0.0259,0.0263,0.0261,0.0215,0.0217,0.0201,0.0199,0.019,0.0189,0.0215,0.0216,0.0353,0,0,0,0.0286,0.0286,0.0279,0.028,0.026,0.0239,0.0259,0.022,0.0215,0.0199,0.0189,0.0188,0.0214,0.0215,0.0348,0.0437,0,0,0,0.0292,0.0286,0.0286,0.028,0.0271,0.0239,0.0237,0.0218,0.0213,0.019,0.0188,0.0213,0.0215,0.0343,0.0427,0.0482,0,0,0,0.0291,0.033,0.0287,0.0336,0.0272,0.0315,0.0238,0.0247,0.0237,0.0189,0.0214,0.0216,0.0341,0.0421,0.0477,0.0553,0.0585,0,0,0.0351,0.0337,0.0373,0.0335,0.0415,0.0318,0.0388,0.0327,0.0254,0.0224,0.0224,0.0349,0.0427,0.0481,0.0647,0.0676,0,0,0,0.0401,0.043,0.0447,0.0477,0.0477,0.049,0.0416,0.0386,0.0354,0.0256,0.0344,0.0389,0.0419,0.0452,0.0476,0.0223,0.0223,0.0223,0.0223,0.0488,0.0508,0.0587,0.0608,0.0624,0.0604,0.0606,0.0546,0.0452,0.0455,0.0496,0.0629,0.0667,0.0685,0.0472,0.0473,0.0474,0.0474,0.0474,0.0618,0.0677,0.0694,0.0774,0.0778,0.0816,0.0786,0.073,0.0717,0.0616,0.0637,0.059,0.0719,0.0485,0.0483,0.0482,0.048,0.048,0.0479,0.0689,0.0725,0.0763,0.0874,0.0964,0.0968,0.1076,0.1003,0.0871,0.0893,0.0882,0.088,0.0719,0.0888,0.0889,0.0889,0.089,0.089,0.0891,0.0743,0.0792,0.089,0.0996,0.1085,0.1215,0.1247,0.1247,0.1174,0.1062,0.1061,0.0768,0.0755,0.0742,0.0901,0.0899,0.0898,0.0897,0.0896,0.0844,0.0854,0.1013,0.1111,0.1341,0.154,0.1545,0.1563,0.1494,0.1474,0.1136,0.1127,0.1089,0.1069,0.1062,0.1295,0.1295,0.1295,0.1295,0.0898,0.092,0.1135,0.1322,0.1547,0.1701,0.1892,0.1828,0.1608,0.1418,0.1412,0.1334,0.1316,0.1283,0.1257,0.125,0.1533,0.1533,0.1533,0.0968,0.1029,0.1193,0.1379,0.1644,0.1877,0.206,0.199,0.1632,0.1538,0.1406,0.132,0.1184,0.1164,0.1087,0.1057,0.1035,0,0]}],[{"header":{"parameterUnit":"m.s-1","parameterCategory":2,"la1":30.2992,"la2":30.254,"lo1":-89.0895,"lo2":-89.0443,"dy":0.0025,"dx":0.0025,"nx":19,"ny":19,"refTime":"2026-04-20T21:00:00:Z","depth":"4","parameterNumber":2,"parameterNumberName":"U-component_of_CURRENTS"},"data":[0,0,0,0.222,0.2225,0.2466,0.2467,0.2682,0.2684,0,0,0,0,0,0,0,0,0,0,0,0.2146,0.2148,0.222,0.2226,0.2466,0.2467,0.2682,0.2684,0,0,0,0,0,0,0,0,0,0,0,0.2145,0.2147,0.2149,0.2227,0.2466,0.2467,0.2681,0.2524,0,0,0,0,0,0,0,0,0,0,0.2303,0.2248,0.2147,0.215,0.2228,0.2465,0.2467,0.2518,0.2534,0.2545,0,0.2596,0,0.2638,0.2695,0.2696,0,0,0,0.2231,0.2235,0.2295,0.215,0.223,0.2465,0.2359,0.2527,0.2546,0.2566,0.2599,0.2608,0.2642,0.2697,0.2697,0.288,0.2881,0,0,0.2218,0.2191,0.2283,0.2307,0.2309,0.2351,0.2366,0.254,0.2566,0.26,0.2613,0.2645,0.2698,0.2699,0.288,0.288,0,0,0,0.2176,0.2182,0.2241,0.2297,0.2346,0.2358,0.2376,0.2559,0.2578,0.2616,0.2648,0.2699,0.2701,0.2879,0.288,0.2936,0,0,0,0.2168,0.2158,0.2235,0.2222,0.2343,0.2468,0.239,0.2566,0.2587,0.2647,0.2699,0.2703,0.2878,0.2879,0.2933,0.2968,0,0,0,0.2132,0.2154,0.2185,0.222,0.232,0.2467,0.2498,0.2572,0.2605,0.2696,0.2703,0.2878,0.2879,0.293,0.2963,0.305,0,0,0,0.2089,0.2128,0.2186,0.2244,0.2318,0.2444,0.2497,0.2611,0.2689,0.27,0.2878,0.288,0.2929,0.296,0.3046,0.2671,0,0,0,0.2099,0.2129,0.2159,0.2216,0.2319,0.241,0.2539,0.2667,0.2716,0.2813,0.2819,0.2934,0.2963,0.3049,0.2769,0,0,0,0,0.2135,0.2165,0.2205,0.229,0.2389,0.2524,0.2641,0.2713,0.2858,0.2771,0.2951,0.2968,0.3021,0.279,0.2888,0.2887,0.2887,0.2887,0.2887,0.2106,0.2165,0.2229,0.233,0.243,0.2612,0.2732,0.2855,0.2884,0.2965,0.3026,0.3147,0.2904,0.3034,0.3034,0.3034,0.3035,0.3035,0.3035,0.2102,0.2122,0.2246,0.2335,0.249,0.2626,0.2851,0.2933,0.3124,0.3101,0.3149,0.2879,0.3041,0.304,0.3039,0.3038,0.3038,0.3037,0.3037,0.2041,0.2056,0.2149,0.2292,0.247,0.267,0.2856,0.3047,0.3185,0.3262,0.3049,0.3209,0.3193,0.3305,0.3306,0.3306,0.3307,0.3307,0.3308,0.1923,0.201,0.2083,0.2254,0.2361,0.2573,0.2893,0.3015,0.3204,0.3093,0.3305,0.3239,0.323,0.321,0.3316,0.3315,0.3313,0.3313,0.3312,0.1815,0.1878,0.1961,0.2059,0.2277,0.239,0.2734,0.289,0.3002,0.2995,0.3001,0.3014,0.297,0.2969,0.2937,0.2967,0.2962,0.2958,0,0.1725,0.1764,0.1854,0.1944,0.2047,0.2272,0.2345,0.2537,0.2718,0.2624,0.2998,0.2997,0.3005,0.2948,0.294,0.2896,0,0,0,0.166,0.1703,0.1715,0.1821,0.1912,0.2088,0.2347,0.2336,0.2686,0.2686,0.2848,0.2877,0.312,0.3341,0.3307,0.3297,0.3263,0,0]},{"header":{"parameterUnit":"m.s-1","parameterCategory":2,"la1":30.2992,"la2":30.254,"lo1":-89.0895,"lo2":-89.0443,"dy":0.0025,"dx":0.0025,"nx":19,"ny":19,"refTime":"2026-04-20T21:00:00:Z","depth":"4","parameterNumber":3,"parameterNumberName":"V-component_of_CURRENTS"},"data":[0,0,0,0.0261,0.0261,0.0252,0.0252,0.0222,0.0222,0,0,0,0,0,0,0,0,0,0,0,0.0265,0.0266,0.0261,0.0261,0.0252,0.0252,0.0222,0.0222,0,0,0,0,0,0,0,0,0,0,0,0.0265,0.0266,0.0266,0.0261,0.0252,0.0251,0.0222,0.0232,0,0,0,0,0,0,0,0,0,0,0.0243,0.0249,0.0266,0.0266,0.0261,0.0252,0.0251,0.0233,0.0232,0.0222,0,0.0226,0,0.0224,0.022,0.022,0,0,0,0.0256,0.0251,0.0251,0.0266,0.0261,0.0252,0.0254,0.0232,0.0231,0.0221,0.0225,0.0224,0.0224,0.0219,0.0219,0.026,0.026,0,0,0.0257,0.0259,0.0252,0.025,0.0264,0.0255,0.0254,0.0232,0.023,0.0225,0.0224,0.0223,0.0219,0.0219,0.0259,0.026,0,0,0,0.0261,0.0259,0.026,0.0251,0.0252,0.0255,0.0254,0.0231,0.0233,0.0223,0.0223,0.0219,0.0219,0.0258,0.0259,0.0359,0,0,0,0.0261,0.0262,0.0261,0.0261,0.0252,0.0243,0.0254,0.0234,0.0232,0.0223,0.0219,0.0218,0.0258,0.0259,0.0355,0.0414,0,0,0,0.0265,0.0262,0.0264,0.0262,0.026,0.0244,0.0243,0.0234,0.0231,0.022,0.0218,0.0257,0.0259,0.0351,0.0406,0.0422,0,0,0,0.0263,0.0296,0.0264,0.0308,0.026,0.0306,0.0244,0.0263,0.0262,0.0219,0.0258,0.0259,0.035,0.0402,0.0418,0.0425,0,0,0,0.0312,0.0302,0.0333,0.0305,0.0376,0.0307,0.037,0.0331,0.028,0.0261,0.0262,0.0357,0.0406,0.0421,0.0517,0,0,0,0,0.0354,0.0378,0.0395,0.0424,0.0433,0.0448,0.0403,0.038,0.0363,0.0286,0.0361,0.0389,0.0395,0.0388,0.0267,0.0267,0.0267,0.0266,0.0266,0.0418,0.0439,0.0505,0.053,0.0552,0.0546,0.0546,0.0504,0.0443,0.0449,0.0473,0.056,0.0559,0.0466,0.0467,0.0467,0.0468,0.0468,0.0468,0.0513,0.0556,0.0585,0.0656,0.0669,0.0709,0.0685,0.0645,0.0626,0.0567,0.0566,0.0499,0.0478,0.0476,0.0475,0.0474,0.0473,0.0472,0.0472,0.0557,0.0582,0.0628,0.0725,0.0805,0.082,0.0885,0.0836,0.0734,0.0742,0.0693,0.0622,0.0608,0.073,0.073,0.0731,0.0731,0.0731,0.0731,0.0575,0.0625,0.0705,0.0805,0.0884,0.0979,0.1006,0.0985,0.0894,0.0821,0.077,0.0648,0.0639,0.0622,0.0737,0.0736,0.0735,0.0735,0.0734,0.0619,0.0642,0.0765,0.0852,0.1037,0.1109,0.1147,0.1082,0.1045,0.0965,0.0837,0.083,0.0787,0.0775,0.076,0.0921,0.0921,0.0922,0,0.0636,0.0659,0.0821,0.0968,0.1119,0.1191,0.1199,0.1164,0.1021,0.1,0.1009,0.0867,0.0859,0.0812,0.0802,0.0787,0,0,0,0.0661,0.0711,0.0824,0.0978,0.1157,0.1188,0.1202,0.116,0.1053,0.1019,0.0935,0.0931,0.0868,0.0753,0.0671,0.0661,0.0628,0,0]}]]